Theta_e
344 344 345 345 344 345 344 345 346 346 342 343 343 344 345 341 345 345 343 344 345 345 345 342 344 343 341 343 341 339 339 339 340
342 343 345 345 345 344 344 344 345 347 346 342 342 342 344 343 344 343 343 343 344 345 342 345 345 344 345 344 344 343 344 343 338
341 342 345 345 345 343 343 342 341 345 344 344 342 345 345 342 343 342 342 343 343 345 346 347 346 346 346 347 346 343 347 344 347
337 341 342 344 345 345 346 345 344 345 345 345 343 345 345 345 343 341 341 344 343 345 343 345 346 346 346 348 346 345 347 345 344
340 343 346 346 345 346 347 346 346 345 345 344 344 341 341 346 346 344 342 339 342 343 345 343 345 345 345 349 347 344 344 347 345
340 344 345 347 349 349 349 347 347 347 345 343 346 346 344 347 347 346 345 342 339 341 343 344 343 345 346 345 345 346 345 342 344
344 344 345 347 349 350 349 347 346 347 347 348 348 348 347 347 346 347 345 343 342 339 341 345 345 345 346 344 345 345 342 338 346
343 345 346 347 348 347 345 345 349 350 349 349 349 350 349 347 346 347 345 346 345 344 343 342 343 343 344 344 344 344 342 341 339
345 346 347 347 346 343 337 335 335 340 346 349 351 351 349 348 347 347 345 347 346 345 344 343 342 342 341 342 344 342 340 342 344
343 346 346 346 344 336 338 341 342 344 346 348 348 350 349 346 347 347 346 344 342 346 340 343 343 343 343 343 344 346 344 344 344
343 344 346 345 343 334 333 333 335 339 344 346 346 345 346 346 345 345 345 336 337 339 342 339 339 341 344 345 344 343 345 345 344
342 342 343 343 342 332 332 332 332 333 338 340 341 342 342 343 344 345 345 345 345 344 340 339 341 341 340 345 344 344 346 346 345
342 342 343 343 335 332 332 333 332 331 331 330 330 331 333 335 337 339 342 343 339 338 336 335 339 338 337 343 344 344 343 343 343
341 342 343 343 337 336 332 335 336 338 340 340 341 337 334 333 334 337 337 338 339 341 337 337 339 341 343 342 344 343 343 344 343
342 343 344 342 341 338 342 342 341 341 341 342 341 341 340 342 335 335 337 338 339 338 336 338 335 337 340 340 340 340 340 340 340
344 344 343 343 343 343 343 343 342 340 340 342 342 340 339 339 340 339 338 342 339 339 340 339 339 338 337 338 339 338 338 338 338
344 344 344 344 344 342 339 340 340 338 338 338 338 338 336 336 337 338 338 337 338 338 338 338 338 337 337 337 338 336 335 336 337
346 345 345 342 340 338 337 335 331 337 334 334 334 335 335 339 336 335 335 336 334 334 335 334 334 334 334 334 335 335 334 336 336
343 343 343 341 337 336 336 335 333 330 333 330 333 333 334 334 334 334 334 333 334 334 334 333 332 333 333 334 334 334 334 333 334
340 342 337 336 335 335 333 331 328 328 331 332 332 332 333 333 333 333 333 332 332 333 332 332 332 332 332 332 332 332 331 331 331
Wind_Speed
27 24 26 33 46 45 41 39 38 42 30 32 29 28 29 35 35 30 28 30 25 29 28 21 19 18 16 14 14 17 18 16 16
23 25 25 34 43 44 40 41 36 42 34 31 33 34 32 34 37 34 32 32 30 25 24 24 20 19 18 20 18 16 16 17 15
22 23 26 30 38 36 41 42 37 43 38 31 33 33 30 30 37 36 35 34 33 27 24 24 24 21 24 25 21 17 18 17 15
14 18 27 32 35 33 34 40 40 38 41 33 33 35 32 30 33 37 38 37 38 33 29 29 28 28 24 27 25 20 19 17 17
25 17 18 25 32 32 32 38 42 43 32 34 32 33 36 32 30 35 37 40 40 39 35 31 29 29 23 26 27 22 22 20 19
22 26 24 22 18 13 23 34 37 41 37 40 34 34 36 35 32 32 34 34 38 41 36 35 30 27 26 26 27 24 22 21 22
32 25 21 18 18 16 17 24 30 37 36 33 34 38 37 35 34 32 28 30 32 35 41 36 35 32 30 28 26 26 25 23 24
28 24 20 17 13 8 7 12 18 21 26 32 36 39 40 35 32 30 28 31 28 25 31 36 37 37 33 30 31 28 28 25 24
31 26 20 13 8 8 7 9 12 15 19 20 21 29 32 32 34 35 31 31 29 30 27 25 31 34 34 33 29 29 29 26 25
31 26 20 15 9 5 4 5 4 4 8 14 18 19 26 29 34 35 33 33 32 31 26 26 30 33 33 33 32 31 29 27 26
31 27 23 19 14 11 12 9 7 5 3 2 3 6 11 15 23 27 29 26 27 35 35 31 36 34 35 32 31 31 31 28 27
33 29 27 23 17 17 14 11 11 12 11 9 7 6 4 4 8 12 14 20 24 29 29 31 36 38 29 27 31 32 31 30 29
35 31 29 26 23 19 14 12 11 11 13 12 12 11 10 7 2 5 8 14 20 11 19 15 17 23 30 30 33 33 31 29 28
35 33 31 27 22 16 14 11 10 7 4 4 5 4 4 5 4 4 4 5 17 18 11 9 9 10 12 20 24 22 22 25 25
38 35 31 25 20 17 14 10 9 8 6 3 3 1 1 1 0 2 3 4 2 4 17 12 12 5 9 10 6 9 11 16 17
36 33 29 24 20 18 14 12 10 9 5 5 5 3 3 5 5 5 3 4 3 3 5 7 8 7 6 8 8 7 8 8 9
34 29 25 24 23 18 15 13 12 11 9 8 8 6 4 7 5 3 2 3 4 3 6 5 4 5 6 6 7 6 7 7 6
29 27 25 22 20 16 13 9 7 12 11 6 5 6 6 10 8 6 4 4 6 6 8 8 8 7 5 6 6 6 8 8 9
29 27 24 21 18 16 11 8 5 9 11 8 9 10 9 10 9 6 4 2 1 3 4 5 6 8 9 9 9 10 13 12 11
29 28 26 22 16 10 8 6 5 4 11 10 14 11 11 8 8 6 5 6 5 3 4 6 8 7 7 9 9 11 11 10 9
Wind_Direction
215 202 195 207 206 208 218 219 216 217 226 218 224 222 223 217 218 216 217 219 224 226 226 232 237 235 223 216 220 224 228 234 236
212 206 198 207 206 214 221 224 225 221 227 230 230 223 221 221 220 219 221 220 226 224 225 229 235 231 229 225 226 223 225 231 231
198 201 206 207 207 215 223 231 236 228 231 230 222 217 220 223 223 226 224 222 225 223 218 228 233 235 238 233 227 232 228 226 221
246 211 213 217 220 229 235 237 238 228 226 231 222 222 223 225 226 228 228 226 225 228 225 227 235 243 246 225 224 220 221 225 231
239 246 202 223 232 238 242 238 240 232 232 235 230 234 230 226 228 229 228 227 224 227 226 224 234 239 240 226 225 225 227 229 240
231 175 154 150 167 204 218 229 228 227 235 233 239 235 224 227 226 231 230 231 228 225 228 228 225 226 227 230 224 229 228 242 237
174 162 162 156 145 140 178 207 220 230 237 238 240 238 225 229 228 230 231 231 230 230 228 232 229 225 227 228 230 226 246 245 243
156 163 170 172 171 159 175 195 207 210 224 234 236 240 234 232 240 236 236 239 230 231 229 235 237 235 236 235 238 241 239 248 252
166 171 173 177 192 248 239 240 241 239 236 235 237 235 236 234 234 239 231 231 234 233 231 238 230 237 244 243 244 250 250 248 252
175 176 181 178 188 203 187 161 189 238 234 235 236 228 233 227 230 233 230 242 233 228 239 232 238 240 238 245 246 248 245 247 245
179 186 185 183 185 174 147 127 115 113 147 204 226 226 233 228 231 239 243 235 237 229 237 247 243 254 240 240 246 242 242 245 243
187 193 199 192 183 168 152 130 112 100 95 92 97 105 111 150 212 235 243 240 233 227 229 239 244 242 249 242 245 246 245 243 242
189 197 195 185 177 169 162 147 132 117 102 90 85 83 78 71 67 243 236 233 190 219 222 287 267 237 255 238 245 245 242 243 244
194 193 186 183 177 172 167 159 155 136 102 105 99 91 73 64 78 91 65 215 230 236 232 251 286 199 204 247 240 246 253 240 241
187 183 177 178 174 173 170 163 160 169 192 207 155 150 293 195 161 100 62 61 69 229 221 260 265 208 210 257 249 235 247 255 259
180 177 175 178 178 169 174 185 184 182 213 218 206 234 245 208 214 229 185 143 140 150 165 182 182 186 192 210 217 225 235 242 248
172 175 176 174 176 180 179 179 184 193 192 221 232 251 217 197 201 191 155 143 170 165 174 182 170 185 194 198 209 225 225 216 204
170 175 175 181 183 180 182 190 198 196 193 218 203 173 142 148 149 129 99 74 91 105 136 142 146 156 162 150 156 153 148 156 151
165 170 174 176 179 180 186 205 222 211 209 215 169 151 148 126 126 151 150 138 91 86 102 118 118 111 114 115 127 130 133 138 137
171 172 169 173 181 191 197 213 231 194 167 180 168 170 163 167 144 107 134 149 154 123 116 119 118 109 107 111 113 119 124 128 129